TimeEDT,TemperatureF,Dew PointF,Humidity,Sea Level PressureIn,VisibilityMPH,Wind Direction,Wind SpeedMPH,Gust SpeedMPH,PrecipitationIn,Events,Conditions,WindDirDegrees,DateUTC
12:15 AM,57.2,55.4,94,30.12,6.0,SSE,3.5,-,N/A,,Overcast,160,2013-05-09 04:15:00
12:35 AM,57.2,55.4,94,30.11,5.0,Calm,Calm,-,0.01,,Overcast,0,2013-05-09 04:35:00
12:55 AM,57.2,55.4,94,30.10,10.0,ESE,3.5,-,0.01,,Overcast,120,2013-05-09 04:55:00
1:15 AM,55.4,55.4,100,30.10,9.0,Calm,Calm,-,N/A,,Overcast,0,2013-05-09 05:15:00
1:55 AM,55.4,53.6,94,30.08,10.0,Calm,Calm,-,N/A,,Overcast,0,2013-05-09 05:55:00
2:15 AM,55.4,53.6,94,30.07,9.0,Calm,Calm,-,N/A,,Mostly Cloudy,0,2013-05-09 06:15:00
2:35 AM,55.4,53.6,94,30.06,10.0,Calm,Calm,-,N/A,,Mostly Cloudy,0,2013-05-09 06:35:00
2:55 AM,55.4,53.6,94,30.05,8.0,Calm,Calm,-,N/A,,Mostly Cloudy,0,2013-05-09 06:55:00
3:15 AM,55.4,53.6,94,30.06,8.0,Calm,Calm,-,N/A,,Overcast,0,2013-05-09 07:15:00
3:35 AM,55.4,53.6,94,30.05,10.0,Calm,Calm,-,N/A,,Overcast,0,2013-05-09 07:35:00
3:55 AM,55.4,53.6,94,30.05,8.0,Calm,Calm,-,N/A,,Overcast,0,2013-05-09 07:55:00
4:15 AM,55.4,53.6,94,30.05,8.0,South,3.5,-,N/A,,Overcast,170,2013-05-09 08:15:00
4:35 AM,55.4,53.6,94,30.04,10.0,Calm,Calm,-,N/A,,Overcast,0,2013-05-09 08:35:00
4:55 AM,53.6,53.6,100,30.04,8.0,Calm,Calm,-,N/A,,Overcast,0,2013-05-09 08:55:00
5:15 AM,53.6,53.6,100,30.04,4.0,Calm,Calm,-,0.02,,Overcast,0,2013-05-09 09:15:00
5:35 AM,53.6,53.6,100,30.03,3.0,Calm,Calm,-,0.05,,Overcast,0,2013-05-09 09:35:00
5:55 AM,53.6,53.6,100,30.03,2.0,Calm,Calm,-,0.09,,Overcast,0,2013-05-09 09:55:00
6:15 AM,53.6,53.6,100,30.02,2.5,Calm,Calm,-,0.08,,Overcast,0,2013-05-09 10:15:00
6:35 AM,53.6,53.6,100,30.02,3.0,Calm,Calm,-,0.13,,Overcast,0,2013-05-09 10:35:00
6:55 AM,53.6,53.6,100,30.02,5.0,Calm,Calm,-,0.16,,Overcast,0,2013-05-09 10:55:00
7:15 AM,53.6,53.6,100,30.02,5.0,Calm,Calm,-,0.01,,Overcast,0,2013-05-09 11:15:00
7:35 AM,53.6,53.6,100,30.02,10.0,Calm,Calm,-,0.01,,Overcast,0,2013-05-09 11:35:00
7:55 AM,55.4,53.6,94,30.02,7.0,Calm,Calm,-,0.01,,Overcast,0,2013-05-09 11:55:00
8:16 AM,55.4,53.6,94,30.03,10.0,East,3.5,-,N/A,,Overcast,90,2013-05-09 12:16:00
8:35 AM,55.4,53.6,94,30.03,10.0,Calm,Calm,-,N/A,,Overcast,0,2013-05-09 12:35:00
8:55 AM,55.4,53.6,94,30.03,10.0,Calm,Calm,-,N/A,,Overcast,0,2013-05-09 12:55:00
9:15 AM,55.4,53.6,94,30.03,9.0,Calm,Calm,-,N/A,,Overcast,0,2013-05-09 13:15:00
9:35 AM,55.4,53.6,94,30.01,10.0,Calm,Calm,-,N/A,,Overcast,0,2013-05-09 13:35:00
9:55 AM,55.4,53.6,94,30.01,10.0,East,3.5,-,N/A,,Overcast,80,2013-05-09 13:55:00
10:15 AM,55.4,53.6,94,30.01,1.5,Calm,Calm,-,N/A,,Overcast,0,2013-05-09 14:15:00
10:35 AM,55.4,53.6,94,30.01,1.8,Calm,Calm,-,N/A,,Overcast,0,2013-05-09 14:35:00
10:55 AM,55.4,55.4,100,30.00,1.5,Calm,Calm,-,N/A,,Overcast,0,2013-05-09 14:55:00
11:35 AM,57.2,55.4,94,30.00,10.0,ENE,3.5,-,N/A,,Overcast,60,2013-05-09 15:35:00
11:55 AM,57.2,55.4,94,29.99,9.0,Calm,Calm,-,N/A,,Overcast,0,2013-05-09 15:55:00
12:15 PM,59.0,55.4,88,29.99,10.0,East,3.5,-,N/A,,Overcast,100,2013-05-09 16:15:00
12:35 PM,59.0,55.4,88,29.98,10.0,Calm,Calm,-,N/A,,Overcast,0,2013-05-09 16:35:00
1:15 PM,62.6,57.2,82,29.97,10.0,South,3.5,-,N/A,,Overcast,180,2013-05-09 17:15:00
1:35 PM,62.6,57.2,82,29.97,10.0,SE,3.5,-,N/A,,Overcast,140,2013-05-09 17:35:00
1:55 PM,62.6,57.2,82,29.96,10.0,Calm,Calm,-,N/A,,Overcast,0,2013-05-09 17:55:00
2:15 PM,62.6,57.2,82,29.95,10.0,SSE,3.5,-,N/A,,Overcast,160,2013-05-09 18:15:00
2:35 PM,62.6,57.2,82,29.94,10.0,East,3.5,-,N/A,,Overcast,100,2013-05-09 18:35:00
2:55 PM,62.6,57.2,82,29.93,10.0,South,3.5,-,N/A,,Overcast,170,2013-05-09 18:55:00
3:15 PM,62.6,57.2,82,29.93,10.0,SSE,3.5,-,N/A,,Overcast,160,2013-05-09 19:15:00
3:35 PM,62.6,57.2,82,29.92,10.0,Calm,Calm,-,N/A,,Overcast,0,2013-05-09 19:35:00
3:55 PM,62.6,57.2,82,29.92,10.0,South,4.6,-,N/A,,Overcast,170,2013-05-09 19:55:00
4:15 PM,62.6,57.2,82,29.92,10.0,Calm,Calm,-,N/A,,Overcast,0,2013-05-09 20:15:00
4:35 PM,62.6,57.2,82,29.91,10.0,Calm,Calm,-,N/A,,Overcast,0,2013-05-09 20:35:00
4:55 PM,60.8,57.2,88,29.91,10.0,SSE,4.6,-,N/A,,Overcast,150,2013-05-09 20:55:00
5:15 PM,60.8,57.2,88,29.91,9.0,SSE,3.5,-,0.01,,Overcast,160,2013-05-09 21:15:00
5:35 PM,59.0,57.2,94,29.90,9.0,Calm,Calm,-,0.01,,Overcast,0,2013-05-09 21:35:00
5:55 PM,59.0,57.2,94,29.90,10.0,Calm,Calm,-,0.02,,Overcast,0,2013-05-09 21:55:00
6:15 PM,59.0,57.2,94,29.90,4.0,South,3.5,-,0.04,,Overcast,170,2013-05-09 22:15:00
6:35 PM,57.2,57.2,100,29.89,3.0,NNE,3.5,-,0.24,,Overcast,20,2013-05-09 22:35:00
6:55 PM,57.2,57.2,100,29.89,3.0,Calm,Calm,-,0.27,,Overcast,0,2013-05-09 22:55:00
7:15 PM,57.2,57.2,100,29.89,8.0,Calm,Calm,-,N/A,,Overcast,0,2013-05-09 23:15:00
7:35 PM,57.2,57.2,100,29.90,8.0,South,3.5,-,N/A,,Overcast,180,2013-05-09 23:35:00
7:55 PM,57.2,55.4,94,29.90,10.0,Calm,Calm,-,N/A,,Overcast,0,2013-05-09 23:55:00
8:15 PM,55.4,55.4,100,29.91,10.0,South,5.8,-,N/A,,Overcast,170,2013-05-10 00:15:00
8:35 PM,55.4,55.4,100,29.91,10.0,South,3.5,-,N/A,,Overcast,190,2013-05-10 00:35:00
8:55 PM,55.4,55.4,100,29.92,8.0,SSW,8.1,-,N/A,,Overcast,200,2013-05-10 00:55:00
9:15 PM,55.4,53.6,94,29.92,2.0,SSW,6.9,-,N/A,,Overcast,200,2013-05-10 01:15:00
9:55 PM,55.4,53.6,94,29.92,0.5,South,3.5,-,N/A,,Overcast,180,2013-05-10 01:55:00
10:35 PM,55.4,55.4,100,29.91,0.2,Calm,Calm,-,N/A,,Overcast,0,2013-05-10 02:35:00
10:55 PM,55.4,53.6,94,29.91,0.5,South,3.5,-,N/A,,Overcast,190,2013-05-10 02:55:00
11:15 PM,55.4,53.6,94,29.91,0.8,Calm,Calm,-,N/A,,Overcast,0,2013-05-10 03:15:00
11:35 PM,53.6,51.8,94,29.90,0.8,SSW,3.5,-,N/A,,Overcast,200,2013-05-10 03:35:00
11:55 PM,53.6,51.8,94,29.90,0.5,SSW,3.5,-,N/A,,Overcast,210,2013-05-10 03:55:00